Location: *
(57.8420°S, 159.8600°W)
Time: 05:25:50
(UTC+00:00)

Cosmos 1809 Rocket - Pass Details

Date: 18 May 2021
Orbit: 942 x 962 km, 82.5° (Epoch: 20 June)

Event Time Altitude Azimuth Distance (km) Brightness Sun altitude
Rises 04:43:04 0° 5° (N) 3,650 7.6 -17.4°
Reaches altitude 10° 04:45:35 10° 8° (N) 2,709 6.8 -17.8°
Maximum altitude 04:51:40 60° 85° (E) 1,112 4.5 -18.6°
Drops below altitude 10° 04:57:47 10° 162° (SSE) 2,725 6.6 -19.4°
Sets 05:00:20 0° 166° (SSE) 3,674 7.3 -19.7°
